This is the latest recevied weather packets stored in our database for station/object TF3VP-10. If no packets are shown the sender has not sent any weather packets the latest 10 day(s).
| Time | Temp. | Humidity | Pressure | Rain* | Wind** | Luminosity | Snow |
|---|---|---|---|---|---|---|---|
| 1777960247 | -0.56° C | 60% | 1038.7 hPa | - | - | - | - |
| 1777959347 | -0.56° C | 60% | 1038.6 hPa | - | - | - | - |
| 1777958447 | -0.56° C | 59% | 1038.7 hPa | - | - | - | - |
| 1777957547 | -0.56° C | 57% | 1038.9 hPa | - | - | - | - |
| 1777956647 | -1.67° C | 60% | 1038.8 hPa | - | - | - | - |
| 1777955747 | -1.67° C | 60% | 1039 hPa | - | - | - | - |
| 1777954847 | -1.11° C | 57% | 1039.1 hPa | - | - | - | - |
| 1777953947 | -1.11° C | 61% | 1039.1 hPa | - | - | - | - |
| 1777953047 | -1.67° C | 55% | 1039.1 hPa | - | - | - | - |
| 1777952147 | -2.22° C | 59% | 1039 hPa | - | - | - | - |
| 1777951247 | -2.22° C | 60% | 1038.6 hPa | - | - | - | - |
| 1777950349 | -2.22° C | 56% | 1038.9 hPa | - | - | - | - |
| 1777949447 | -2.22° C | 62% | 1038.9 hPa | - | - | - | - |
| 1777948548 | -1.67° C | 59% | 1039 hPa | - | - | - | - |
| 1777947647 | -2.22° C | 59% | 1039 hPa | - | - | - | - |
| 1777946747 | -2.22° C | 60% | 1039.3 hPa | - | - | - | - |
| 1777945847 | -1.67° C | 62% | 1039.4 hPa | - | - | - | - |
| 1777944947 | -1.11° C | 59% | 1039.2 hPa | - | - | - | - |
| 1777944047 | -0.56° C | 61% | 1039.3 hPa | - | - | - | - |
| 1777943148 | 0.56° C | 55% | 1039.2 hPa | - | - | - | - |
| 1777942248 | 0.56° C | 55% | 1039.1 hPa | - | - | - | - |
| 1777941347 | 0.56° C | 52% | 1039 hPa | - | - | - | - |
| 1777940447 | 0.56° C | 52% | 1038.9 hPa | - | - | - | - |
| 1777939548 | 0.56° C | 52% | 1039.1 hPa | - | - | - | - |
| 1777938647 | 0.56° C | 52% | 1039.2 hPa | - | - | - | - |
* Rain since midnight (hover to see other rain measurements)
** Current wind speed in m/s (hover to see current wind gust speed)